[[{"header":{"parameterUnit":"m.s-1","parameterCategory":1,"la1":30.2991,"la2":30.254,"lo1":-89.0895,"lo2":-89.0444,"dy":0.0017,"dx":0.0017,"nx":28,"ny":28,"refTime":"2024-09-01T21:00:00:Z","depth":0,"parameterNumber":2,"parameterNumberName":"U-component_of_WINDS"},"data":[0,0,0,0,0,0,0,0,0,0,0,0,0,0,0,0,0,0,0,0,0,0,0,0,0,0,0,0,0,0,0,0,0,0,0,0,0,0,0,0,0,0,0,0,0,0,0,0,0,0,0,0,0,0,0,0,0,0,-0.0074,-0.0073,0,0.0032,0.0033,0.0034,0.0087,0.0087,0.0087,0.0087,0.0195,0.0198,0.0201,0,0,0,0,0,0,0,0,0,0,0,0,0,-0.0233,-0.023,-0.0074,-0.0073,-0.0072,0.0032,0.0033,0.0035,0.0087,0.0087,0.0087,0.0087,0.0194,0.0198,0.0201,0,0,0,0,0,0,0,0,0,0,0,0,0,-0.0149,-0.0229,-0.0074,-0.0033,-0.0028,0.0031,0.0033,0.0035,0.0087,0.0087,0.0087,0.0087,0.0193,0.0197,0.0202,0.0228,0,0,0.0215,0.0217,0,0,0,0,0,0,0,0,-0.0154,-0.0143,-0.004,-0.0036,-0.003,0.0046,0.0017,0.01,0.0087,0.0043,0.0087,0.0087,0.0146,0.0154,0.0174,0.0233,0.0238,0.0215,0.0218,0.022,0.0221,0,0,0,0,0,0,0,-0.016,-0.0148,-0.0032,-0.0039,-0.0033,-0.002,-0.0008,0.0033,0.0093,0.0047,0.0051,0.0063,0.0148,0.0169,0.0177,0.0239,0.0215,0.0219,0.0222,0.0223,0.0324,0.0324,0,0,0,0,0,0,-0.0172,-0.0153,-0.0036,-0.0029,-0.0093,-0.0017,-0.0004,0.0022,0.0093,0.0104,0.0063,0.0065,0.0162,0.0172,0.0181,0.0216,0.022,0.0224,0.0226,0.0324,0.0324,0.0324,0,0,0,0,0,0,-0.0176,-0.0162,-0.004,-0.009,-0.0073,-0.0015,0.0014,0.0024,0.0045,0.0105,0.0116,0.0073,0.0163,0.0175,0.0216,0.022,0.0226,0.023,0.0324,0.0324,0.0324,0.0286,0,0,0,0,0,0,-0.0181,-0.0164,-0.0153,-0.009,-0.0071,-0.0006,0.0014,0.0026,0.0052,0.0056,0.0118,0.0128,0.0163,0.0209,0.022,0.0226,0.0233,0.0324,0.0324,0.0324,0.0287,0.0284,0.0282,0,0,0,0,0,-0.0186,-0.0167,-0.0152,-0.0138,-0.0056,-0.0006,0.0005,0.0046,0.0052,0.0064,0.0102,0.0126,0.0217,0.0213,0.0225,0.0233,0.0323,0.0324,0.0324,0.0288,0.0285,0.0282,0,0,0,0,0,0,-0.0231,-0.0158,-0.0141,-0.0101,-0.006,0.0003,0.0018,0.0041,0.0081,0.0083,0.0132,0.0145,0.0181,0.0211,0.0205,0.0261,0.0273,0.0275,0.0241,0.0239,0.0236,0.0229,0.0237,0,0,0,0,0,-0.0236,-0.0201,-0.014,-0.0111,-0.0091,-0.004,-0.0017,0.001,0.0055,0.0072,0.0113,0.0155,0.0193,0.0217,0.0256,0.0291,0.0304,0.0302,0.03,0.0298,0.03,0.0319,0.0319,0.0325,0.0325,0.0325,0,0,-0.0246,-0.0202,-0.0183,-0.0119,-0.0084,-0.005,-0.0026,0.0009,0.0035,0.0078,0.0119,0.015,0.0199,0.0237,0.0256,0.0263,0.0301,0.0298,0.0296,0.0299,0.0319,0.0319,0.0318,0.0325,0.0325,0.0325,0,0,-0.0247,-0.021,-0.0182,-0.0148,-0.0096,-0.0063,-0.0056,0.0003,0.0025,0.0067,0.0099,0.013,0.0195,0.0228,0.0254,0.0263,0.0286,0.0274,0.0263,0.0281,0.0281,0.0281,0.0283,0.0284,0.0276,0.0276,0.0275,0,-0.0266,-0.0213,-0.0171,-0.0137,-0.0111,-0.0071,-0.0043,-0.0012,0.005,0.0067,0.0074,0.0155,0.0192,0.0237,0.0239,0.0258,0.0267,0.0268,0.0278,0.0278,0.0278,0.0281,0.0282,0.0274,0.0274,0.0274,0.0274,0,-0.0239,-0.0203,-0.0187,-0.0129,-0.01,-0.007,-0.0024,-0.0,0.0024,0.0057,0.0098,0.0142,0.019,0.0202,0.0227,0.0251,0.0254,0.0268,0.0281,0.0275,0.0279,0.0281,0.0271,0.0272,0.0272,0.0273,0,0,-0.0263,-0.0183,-0.0178,-0.0152,-0.0092,-0.0064,-0.0033,0.0013,0.0032,0.0073,0.01,0.0153,0.0166,0.0195,0.0223,0.0239,0.0243,0.0252,0.0254,0.0249,0.0271,0.026,0.026,0.0258,0.0258,0.0259,0.0267,0,-0.0255,-0.0197,-0.0159,-0.0115,-0.0082,-0.0046,-0.0019,0.002,0.005,0.0082,0.0116,0.0152,0.0167,0.0185,0.0202,0.0239,0.0248,0.0238,0.0283,0.0284,0.027,0.0263,0.0251,0.0257,0.0268,0.0269,0.0269,0,-0.0238,-0.0199,-0.0153,-0.0099,-0.0083,-0.0059,-0.0015,0.0015,0.0059,0.008,0.0111,0.0139,0.0173,0.0181,0.0227,0.022,0.024,0.026,0.0262,0.0268,0.0277,0.0269,0.026,0.026,0.0272,0.0271,0.0271,0,-0.026,-0.0196,-0.016,-0.0139,-0.0075,-0.0059,-0.0032,0.0012,0.0036,0.0075,0.0091,0.0133,0.0156,0.0187,0.0225,0.0228,0.0267,0.0279,0.0285,0.0284,0.0293,0.0292,0.0287,0.0305,0.0305,0.0305,0.0305,0,-0.0255,-0.0228,-0.017,-0.0148,-0.0117,-0.0075,-0.0046,-0.0015,0.0023,0.0051,0.0084,0.011,0.0159,0.0189,0.0219,0.0253,0.0263,0.028,0.0288,0.0278,0.0275,0.0292,0.0293,0.0305,0.0305,0.0305,0.0305,0,-0.0274,-0.0234,-0.0192,-0.0136,-0.0121,-0.0101,-0.0053,-0.0031,0.0,0.0035,0.0046,0.0095,0.0133,0.0173,0.0225,0.0245,0.0277,0.0288,0.0262,0.0267,0.027,0.0269,0.0277,0.0279,0.0294,0.0294,0.0294,0,-0.0273,-0.0252,-0.0194,-0.0173,-0.0146,-0.0113,-0.0088,-0.0046,-0.0022,0.0029,0.0044,0.0085,0.012,0.0178,0.0218,0.0257,0.0269,0.0269,0.0276,0.0264,0.0269,0.0268,0.027,0.0267,0.0267,0.0267,0.0267,0,-0.0276,-0.0258,-0.0223,-0.0182,-0.0153,-0.0118,-0.0082,-0.0067,-0.0019,0.0007,0.0046,0.0072,0.0124,0.0164,0.0207,0.0235,0.0258,0.0264,0.0267,0.0257,0.0241,0.025,0.0257,0.0264,0.0264,0.0264,0.0264,0.0265,-0.0285,-0.0265,-0.0221,-0.0184,-0.0153,-0.0121,-0.0097,-0.0064,-0.0031,0.0015,0.0037,0.0076,0.0117,0.0178,0.0205,0.0235,0.0242,0.0247,0.0249,0.025,0.0247,0.0236,0.0243,0.0243,0.0243,0.0244,0.0244,0,-0.0286,-0.0257,-0.0223,-0.0174,-0.0146,-0.0127,-0.0087,-0.0064,-0.003,0.0006,0.0039,0.0083,0.0121,0.0162,0.0202,0.0218,0.023,0.0227,0.0227,0.0233,0.0238,0.0231,0.0217,0.0217,0.0217,0.0217,0.0217,0.0217,-0.0283,-0.0248,-0.0225,-0.0175,-0.0146,-0.0108,-0.0087,-0.0058,-0.0028,0.0019,0.005,0.0077,0.0116,0.0158,0.0193,0.0204,0.0218,0.0212,0.0226,0.023,0.0233,0.0235,0.0228,0.0214,0.0214,0.0218,0.0218,0.0218]},{"header":{"parameterUnit":"m.s-1","parameterCategory":1,"la1":30.2991,"la2":30.254,"lo1":-89.0895,"lo2":-89.0444,"dy":0.0017,"dx":0.0017,"nx":28,"ny":28,"refTime":"2024-09-01T21:00:00:Z","depth":0,"parameterNumber":3,"parameterNumberName":"V-component_of_WINDS"},"data":[0,0,0,0,0,0,0,0,0,0,0,0,0,0,0,0,0,0,0,0,0,0,0,0,0,0,0,0,0,0,0,0,0,0,0,0,0,0,0,0,0,0,0,0,0,0,0,0,0,0,0,0,0,0,0,0,0,0,1.0088,1.0088,0,1.004,1.0039,1.0039,1.0036,1.0036,1.0037,1.0037,0.9986,0.9984,0.9982,0,0,0,0,0,0,0,0,0,0,0,0,0,1.0175,1.0173,1.0088,1.0088,1.0087,1.004,1.0039,1.0039,1.0036,1.0036,1.0037,1.0038,0.9986,0.9984,0.9982,0,0,0,0,0,0,0,0,0,0,0,0,0,1.0133,1.0173,1.0088,1.008,1.0079,1.004,1.0039,1.0038,1.0036,1.0036,1.0037,1.0038,0.9987,0.9984,0.9981,0.9947,0,0,0.9973,0.9971,0,0,0,0,0,0,0,0,1.0135,1.013,1.0082,1.008,1.0079,1.0045,1.0051,1.0008,1.0035,1.0052,1.0037,1.0038,1.0004,1.0,0.9989,0.9945,0.9942,0.9972,0.9971,0.9969,0.9969,0,0,0,0,0,0,0,1.0138,1.0132,1.0069,1.0081,1.0079,1.0078,1.0073,1.0043,1.0024,1.005,1.005,1.0045,1.0004,0.9992,0.9988,0.9942,0.9972,0.997,0.9968,0.9967,0.9866,0.9865,0,0,0,0,0,0,1.0143,1.0134,1.007,1.0068,1.011,1.0075,1.007,1.0055,1.0024,1.0021,1.0044,1.0045,0.9996,0.9991,0.9986,0.9944,0.9969,0.9967,0.9965,0.9867,0.9866,0.9865,0,0,0,0,0,0,1.0145,1.0137,1.0072,1.0101,1.0092,1.0073,1.0056,1.0053,1.0042,1.0019,1.0016,1.0036,0.9997,0.999,0.9957,0.9942,0.9966,0.9963,0.9868,0.9866,0.9865,0.9859,0,0,0,0,0,0,1.0147,1.0138,1.0126,1.0101,1.0091,1.0045,1.0055,1.0052,1.0037,1.0038,1.0011,1.0007,0.9997,0.9961,0.9954,0.9938,0.9961,0.9869,0.9867,0.9866,0.986,0.9857,0.9855,0,0,0,0,0,1.015,1.0125,1.0125,1.0117,1.0075,1.0044,1.0038,1.0028,1.0036,1.0023,1.0008,1.0008,0.9945,0.9958,0.995,0.9933,0.987,0.9868,0.9866,0.9861,0.9858,0.9855,0,0,0,0,0,0,1.0148,1.0122,1.0121,1.0087,1.0068,1.0044,1.0027,1.0025,1.0002,1.0004,0.9991,0.9985,0.9952,0.9939,0.9954,0.9898,0.9908,0.9904,0.9908,0.9904,0.9901,0.9905,0.9958,0,0,0,0,0,1.0144,1.0122,1.01,1.0072,1.0062,1.0046,1.0032,1.0026,1.0005,0.9997,0.998,0.9959,0.9934,0.9919,0.9895,0.9858,0.9852,0.9843,0.984,0.9838,0.9835,0.9814,0.9809,0.9857,0.9857,0.9857,0,0,1.0135,1.0118,1.0104,1.0071,1.0055,1.0032,1.0039,1.0014,0.9996,0.9993,0.9961,0.9947,0.9923,0.9888,0.9872,0.9876,0.982,0.9835,0.9834,0.9831,0.9811,0.9806,0.9802,0.9856,0.9856,0.9856,0,0,1.0106,1.0091,1.0066,1.005,1.0027,1.0016,1.001,0.9986,0.9977,0.9944,0.9941,0.9919,0.9877,0.986,0.9846,0.981,0.9808,0.9802,0.9788,0.9767,0.9764,0.976,0.9747,0.9742,0.9799,0.9799,0.9799,0,1.0097,1.0063,1.0053,1.0028,1.0013,1.001,0.9984,0.9968,0.9938,0.9927,0.9933,0.988,0.9863,0.9824,0.9815,0.9804,0.9796,0.9805,0.9765,0.9762,0.9758,0.9745,0.974,0.9798,0.9798,0.9798,0.9798,0,1.0053,1.0029,1.0011,0.9982,0.9965,0.994,0.9926,0.991,0.9905,0.9893,0.986,0.984,0.9812,0.9802,0.9797,0.9761,0.9765,0.9768,0.9778,0.9753,0.9741,0.9736,0.9797,0.9798,0.9798,0.9798,0,0,1.0021,0.9988,0.9981,0.9968,0.9942,0.9922,0.9896,0.9869,0.9855,0.9834,0.9812,0.9776,0.9779,0.9762,0.9755,0.9737,0.9709,0.9743,0.9742,0.9737,0.9668,0.9666,0.9661,0.9708,0.9707,0.9707,0.967,0,0.9989,0.9944,0.9934,0.9895,0.9872,0.9868,0.9845,0.9826,0.9814,0.9792,0.9779,0.9754,0.9759,0.9749,0.9732,0.9717,0.9696,0.9719,0.9686,0.9685,0.9692,0.9654,0.9652,0.9619,0.9666,0.9665,0.9664,0,0.9946,0.9925,0.9883,0.9859,0.9849,0.9829,0.9803,0.9782,0.976,0.9753,0.9734,0.9729,0.9701,0.9712,0.9672,0.9689,0.9675,0.9665,0.9663,0.966,0.9673,0.9649,0.9608,0.9603,0.9657,0.9657,0.9658,0,0.9927,0.9887,0.9857,0.9846,0.9817,0.9803,0.979,0.9769,0.9753,0.973,0.972,0.9694,0.9679,0.9659,0.9646,0.9656,0.9607,0.9618,0.9599,0.96,0.9589,0.959,0.9545,0.9581,0.9581,0.9581,0.9581,0,0.9892,0.9867,0.9848,0.983,0.9801,0.979,0.9761,0.9748,0.9729,0.9707,0.9701,0.9681,0.9665,0.9642,0.9632,0.96,0.9594,0.9586,0.9584,0.9587,0.9588,0.9577,0.9579,0.9579,0.958,0.958,0.958,0,0.9866,0.9853,0.982,0.9795,0.9789,0.9768,0.9747,0.9728,0.9716,0.9688,0.9681,0.9662,0.9635,0.962,0.9585,0.9578,0.9543,0.9542,0.9551,0.955,0.9532,0.9534,0.9479,0.947,0.9512,0.9511,0.9511,0,0.9845,0.9825,0.9799,0.9784,0.9771,0.9748,0.9732,0.9719,0.9703,0.9675,0.966,0.9632,0.9609,0.9565,0.9548,0.9521,0.9519,0.9501,0.9515,0.9518,0.9518,0.952,0.9517,0.9499,0.9499,0.9498,0.9498,0,0.9808,0.9803,0.978,0.9755,0.9737,0.9716,0.9696,0.9684,0.9668,0.965,0.9622,0.9604,0.9569,0.9541,0.9513,0.9499,0.9495,0.9494,0.9488,0.9491,0.9497,0.9493,0.9544,0.9495,0.9496,0.9496,0.9496,0.9496,0.9784,0.9766,0.9744,0.9719,0.9703,0.9684,0.9665,0.9651,0.9628,0.9599,0.9593,0.9563,0.954,0.9502,0.9487,0.9463,0.9466,0.9458,0.9456,0.9454,0.9453,0.9501,0.9458,0.9458,0.9458,0.9458,0.9458,0,0.9747,0.9733,0.971,0.9682,0.9662,0.9661,0.9639,0.9622,0.9596,0.9575,0.9553,0.9521,0.9494,0.9474,0.9446,0.9431,0.9428,0.9424,0.9424,0.9421,0.9452,0.946,0.9426,0.9426,0.9426,0.9426,0.9426,0.9426,0.9725,0.9695,0.9686,0.9647,0.9633,0.9605,0.9592,0.9574,0.9557,0.9522,0.95,0.9487,0.9466,0.9437,0.9412,0.9406,0.9396,0.9392,0.9386,0.9416,0.9419,0.9422,0.9429,0.939,0.939,0.9357,0.9357,0.9357]}]]